TimePST,TemperatureF,Dew PointF,Humidity,Sea Level PressureIn,VisibilityMPH,Wind Direction,Wind SpeedMPH,Gust SpeedMPH,PrecipitationIn,Events,Conditions,WindDirDegrees,DateUTC
1:56 AM,34.0,32.0,92,30.66,7.0,North,3.5,-,N/A,,Overcast,360,2013-01-16 09:56:00
2:56 AM,34.0,33.1,96,30.66,6.0,North,4.6,-,N/A,,Overcast,350,2013-01-16 10:56:00
4:56 AM,34.0,33.1,96,30.64,8.0,NNE,4.6,-,N/A,,Overcast,20,2013-01-16 12:56:00
5:56 AM,34.0,32.0,92,30.63,6.0,ENE,3.5,-,N/A,,Overcast,60,2013-01-16 13:56:00
6:56 AM,33.1,32.0,96,30.63,5.0,Calm,Calm,-,N/A,,Overcast,0,2013-01-16 14:56:00
7:56 AM,33.1,32.0,96,30.64,2.0,ENE,5.8,-,N/A,,Overcast,60,2013-01-16 15:56:00
8:43 AM,33.8,32.0,93,30.64,0.8,NNE,4.6,-,N/A,,Overcast,20,2013-01-16 16:43:00
8:56 AM,33.1,32.0,96,30.64,0.8,NE,5.8,-,N/A,,Overcast,40,2013-01-16 16:56:00
9:56 AM,33.1,32.0,96,30.63,1.5,North,3.5,-,N/A,,Overcast,350,2013-01-16 17:56:00
10:56 AM,33.1,32.0,96,30.62,1.5,NNW,4.6,-,N/A,,Overcast,330,2013-01-16 18:56:00
11:56 AM,33.1,32.0,96,30.59,1.5,North,3.5,-,N/A,,Overcast,360,2013-01-16 19:56:00
12:56 PM,33.1,33.1,100,30.57,2.0,ENE,3.5,-,N/A,,Overcast,60,2013-01-16 20:56:00
1:56 PM,34.0,32.0,92,30.56,2.0,NE,3.5,-,N/A,,Overcast,50,2013-01-16 21:56:00
2:56 PM,34.0,32.0,92,30.56,2.0,NNW,6.9,-,N/A,,Overcast,330,2013-01-16 22:56:00
3:56 PM,34.0,33.1,96,30.55,2.0,North,4.6,-,N/A,,Overcast,350,2013-01-16 23:56:00
4:56 PM,34.0,33.1,96,30.54,2.0,NNE,5.8,-,N/A,,Overcast,30,2013-01-17 00:56:00
5:56 PM,33.1,32.0,96,30.53,2.0,ENE,5.8,-,N/A,,Overcast,60,2013-01-17 01:56:00
6:56 PM,33.1,32.0,96,30.53,3.0,ENE,3.5,-,N/A,,Overcast,70,2013-01-17 02:56:00
7:56 PM,33.1,33.1,100,30.53,3.0,Calm,Calm,-,N/A,,Overcast,0,2013-01-17 03:56:00
8:37 PM,33.8,33.8,100,30.52,1.5,NNE,4.6,-,N/A,,Overcast,20,2013-01-17 04:37:00
8:44 PM,33.8,33.8,100,30.52,1.2,NNE,5.8,-,N/A,,Overcast,20,2013-01-17 04:44:00
8:56 PM,33.1,32.0,96,30.53,1.0,NE,4.6,-,N/A,,Overcast,50,2013-01-17 04:56:00
9:08 PM,33.8,33.8,100,30.52,0.8,Calm,Calm,-,N/A,,Mist,0,2013-01-17 05:08:00
9:21 PM,33.8,33.8,100,30.52,1.0,North,3.5,-,N/A,,Mist,360,2013-01-17 05:21:00
9:33 PM,33.8,33.8,100,30.52,0.8,Calm,Calm,-,N/A,,Mist,0,2013-01-17 05:33:00
9:48 PM,33.8,33.8,100,30.52,1.0,North,4.6,-,N/A,,Mist,10,2013-01-17 05:48:00
9:56 PM,33.1,33.1,100,30.52,0.8,Calm,Calm,-,N/A,,Mist,0,2013-01-17 05:56:00
10:09 PM,33.8,33.8,100,30.51,1.0,Calm,Calm,-,N/A,,Mist,0,2013-01-17 06:09:00
10:16 PM,33.8,33.8,100,30.51,0.5,NNE,3.5,-,N/A,Fog,Fog,20,2013-01-17 06:16:00
10:36 PM,33.8,33.8,100,30.51,1.0,North,6.9,-,N/A,,Mist,10,2013-01-17 06:36:00
10:56 PM,33.1,33.1,100,30.51,0.8,NE,3.5,-,N/A,,Mist,40,2013-01-17 06:56:00
11:43 PM,32.0,32.0,100,30.50,1.0,Calm,Calm,-,N/A,,Mist,0,2013-01-17 07:43:00
11:52 PM,33.8,33.8,100,30.50,0.8,NNW,3.5,-,N/A,,Mist,340,2013-01-17 07:52:00
11:56 PM,32.0,32.0,100,30.51,1.0,NW,4.6,-,N/A,,Mist,320,2013-01-17 07:56:00